FWV007 GOBD-GABS

Flight info

Callsign FWV007
Flight time N/A
Altitude 37000
Route NURAS1B NURAS DCT SISNU UA601 PINVO DCT BIDOK BIDOK5D
Aircraft B738/M-SDE2E3FGHIRWXY/LB1

Departure

Time 2026-04-28 17:55
Airport Blaise Diagne International Airport (GOBD)

Arrival

Time N/A
Airport Modibo Keita International Airport (GABS)
Time Latitude Longitude Altitude Speed Heading
2026-04-28 17:03 14.67023 -17.06862 292 ft 0 kts 89°
2026-04-28 17:43 14.67023 -17.06884 295 ft 4 kts 89°
2026-04-28 17:43 14.67023 -17.06907 296 ft 4 kts 92°
2026-04-28 17:44 14.67026 -17.06934 297 ft 4 kts 107°
2026-04-28 17:44 14.67037 -17.06959 292 ft 4 kts 130°
2026-04-28 17:44 14.67057 -17.06975 295 ft 4 kts 165°
2026-04-28 17:44 14.67069 -17.06977 294 ft 0 kts 179°
2026-04-28 17:47 14.67066 -17.06977 296 ft 2 kts 179°
2026-04-28 17:47 14.67054 -17.06977 296 ft 4 kts 179°
2026-04-28 17:48 14.67001 -17.06977 294 ft 8 kts 179°
2026-04-28 17:48 14.66936 -17.06976 292 ft 11 kts 179°
2026-04-28 17:48 14.66852 -17.06975 292 ft 13 kts 179°
2026-04-28 17:48 14.66766 -17.06975 294 ft 11 kts 179°
2026-04-28 17:49 14.66701 -17.06976 293 ft 9 kts 189°
2026-04-28 17:49 14.66664 -17.07020 295 ft 9 kts 262°
2026-04-28 17:49 14.66645 -17.07075 295 ft 8 kts 219°
2026-04-28 17:49 14.66589 -17.07087 292 ft 8 kts 181°
2026-04-28 17:50 14.66528 -17.07086 297 ft 10 kts 179°
2026-04-28 17:50 14.66453 -17.07085 292 ft 12 kts 179°
2026-04-28 17:50 14.66354 -17.07085 294 ft 18 kts 179°
2026-04-28 17:50 14.66206 -17.07083 292 ft 24 kts 179°
2026-04-28 17:51 14.66034 -17.07081 293 ft 24 kts 179°
2026-04-28 17:51 14.65876 -17.07080 294 ft 18 kts 179°
2026-04-28 17:51 14.65770 -17.07079 292 ft 15 kts 179°
2026-04-28 17:51 14.65671 -17.07078 296 ft 13 kts 179°
2026-04-28 17:52 14.65593 -17.07077 292 ft 8 kts 181°
2026-04-28 17:52 14.65544 -17.07092 294 ft 8 kts 221°
2026-04-28 17:52 14.65529 -17.07195 291 ft 7 kts 272°
2026-04-28 17:53 14.65533 -17.07242 291 ft 5 kts 276°
2026-04-28 17:53 14.65542 -17.07262 294 ft 3 kts 320°
2026-04-28 17:53 14.65562 -17.07265 291 ft 3 kts 358°
2026-04-28 17:53 14.65568 -17.07265 291 ft 0 kts 359°
2026-04-28 17:54 14.65573 -17.07265 291 ft 5 kts 359°
2026-04-28 17:54 14.65739 -17.07267 291 ft 55 kts 359°
2026-04-28 17:54 14.66354 -17.07272 291 ft 119 kts 360°
2026-04-28 17:54 14.67322 -17.07283 512 ft 147 kts
2026-04-28 17:55 14.68275 -17.07269 1377 ft 129 kts
2026-04-28 17:55 14.69142 -17.07223 2107 ft 121 kts
2026-04-28 17:55 14.70016 -17.07188 2455 ft 139 kts 358°
2026-04-28 17:55 14.71050 -17.07235 2855 ft 157 kts 354°
2026-04-28 17:56 14.72155 -17.07287 3404 ft 163 kts 354°